EXPRESS-AT2

Last updated on Mon Sep 07 2026 00:02:59 GMT+0000 (Coordinated Universal Time)

1 39613U 14010B 26249.17515917 .00000064 00000+0 00000+0 0 9995 2 39613 0.0146 224.7302 0000440 272.0972 327.5022 1.00272144 45317
UTC large
Height (km)
Speed (km/s)
/
Latitude / Longitude
Inclination (degrees)
Orbital Period (minutes)
Azimuth
Elevation
Range (km)
Doppler Factor

Next 0 passes for location: London (51.5072 / 0.1276)

No passes found over London.
EXPRESS-AT2